Poughkeepsie, NY

11:36 PM EDT on April 21, 2018 (GMT -0400)
Dutchess County

Weather History for KPOU - November, 2013

Change the Weather History Date:

Sunday, November 24, 2013

  Actual Average Record
Temperature  
Mean Temperature 26 °F 39 °F  
Max Temperature 30 °F 49 °F 71 °F (2014)
Min Temperature 22 °F 29 °F 3 °F (1989)
Degree Days  
Heating Degree Days 39 26  
Month to date heating degree days 546 537  
Since 1 July heating degree days 1034 1113  
Cooling Degree Days 0 0  
Month to date cooling degree days 0 0  
Year to date cooling degree days 829 672  
Moisture  
Dew Point 3 °F    
Average Humidity 40    
Maximum Humidity 60    
Minimum Humidity 25    
Precipitation  
Precipitation 0.00 in 0.12 in 1.13 in (1980)
Month to date precipitation 0.81 2.77  
Year to date precipitation 34.96 42.30  
Sea Level Pressure  
Sea Level Pressure 30.16 in    
Wind  
Wind Speed 15 mph (WNW)    
Max Wind Speed 22 mph    
Max Gust Speed 33 mph    
Visibility 10 miles    
Events      
T = Trace of Precipitation, MM = Missing Value Source: NWS Daily Summary

Daily Weather History Graph

Daily Weather History Graph

Search for Another Location

Airport or City:

Astronomy

Nov. 24, 2013 Rise Set
Actual Time 6:55 AM EST 4:28 PM EST
Civil Twilight 6:24 AM EST 4:59 PM EST
Nautical Twilight 5:50 AM EST 5:33 PM EST
Astronomical Twilight 5:17 AM EST 6:06 PM EST
Moon 10:54 PM EST (11/24) 11:39 AM EST (11/24)
Length of Visible Light 10h 34m
Length of Day
9h 33m
Waning Gibbous, 61% of the Moon is Illuminated
Nov 24
Waning Gibbous
Nov 25
Last Quarter
Dec 2
New
Dec 9
First Quarter
Dec 17
Full

Hourly Weather History & Observations

Time (EST) Temp. Windchill Dew Point Humidity Pressure Visibility Wind Dir Wind Speed Gust Speed Precip Events Conditions
12:53 AM 26.1 °F 13.1 °F 7.0 °F 44% 29.99 in 10.0 mi West 17.3 mph 26.5 mph N/A   Mostly Cloudy
1:53 AM 25.0 °F 12.2 °F 6.1 °F 45% 29.99 in 10.0 mi West 16.1 mph 28.8 mph N/A   Scattered Clouds
2:53 AM 24.1 °F 11.0 °F 3.9 °F 42% 30.01 in 10.0 mi WNW 16.1 mph 26.5 mph N/A   Mostly Cloudy
3:53 AM 24.1 °F 12.5 °F 3.0 °F 40% 30.01 in 10.0 mi West 12.7 mph 21.9 mph N/A   Overcast
4:53 AM 23.0 °F 12.4 °F 3.9 °F 44% 30.02 in 10.0 mi WNW 10.4 mph - N/A   Overcast
5:53 AM 23.0 °F 9.6 °F 5.0 °F 46% 30.04 in 10.0 mi WNW 16.1 mph 24.2 mph N/A   Overcast
6:53 AM 23.0 °F 10.6 °F 1.9 °F 40% 30.06 in 10.0 mi West 13.8 mph 20.7 mph N/A   Overcast
7:53 AM 23.0 °F 11.7 °F 1.9 °F 40% 30.08 in 10.0 mi WNW 11.5 mph - N/A   Overcast
8:53 AM 23.0 °F 8.0 °F 1.9 °F 40% 30.12 in 10.0 mi NNW 20.7 mph 28.8 mph N/A   Overcast
9:53 AM 25.0 °F 12.2 °F 1.0 °F 36% 30.14 in 10.0 mi NNW 16.1 mph 28.8 mph N/A   Scattered Clouds
10:53 AM 26.1 °F 12.7 °F -0.0 °F 32% 30.13 in 10.0 mi WNW 18.4 mph 31.1 mph N/A   Clear
11:53 AM 27.0 °F 14.3 °F -2.0 °F 29% 30.14 in 10.0 mi NW 17.3 mph 27.6 mph N/A   Clear
12:53 PM 28.9 °F 16.9 °F -2.9 °F 25% 30.15 in 10.0 mi WNW 17.3 mph 28.8 mph N/A   Clear
1:53 PM 28.9 °F 15.4 °F -2.9 °F 25% 30.16 in 10.0 mi WNW 21.9 mph 33.4 mph N/A   Partly Cloudy
2:53 PM 28.0 °F 14.9 °F -2.0 °F 27% 30.19 in 10.0 mi WNW 19.6 mph 28.8 mph N/A   Partly Cloudy
3:53 PM 27.0 °F 14.7 °F -0.9 °F 30% 30.22 in 10.0 mi NW 16.1 mph 26.5 mph N/A   Partly Cloudy
4:53 PM 25.0 °F 13.1 °F 1.9 °F 37% 30.25 in 10.0 mi WNW 13.8 mph 21.9 mph N/A   Partly Cloudy
5:53 PM 25.0 °F 15.5 °F 5.0 °F 43% 30.26 in 10.0 mi WNW 9.2 mph - N/A   Mostly Cloudy
6:53 PM 24.1 °F 13.7 °F 12.0 °F 60% 30.29 in 10.0 mi West 10.4 mph 19.6 mph N/A   Overcast
7:53 PM 25.0 °F 12.2 °F 5.0 °F 43% 30.29 in 10.0 mi WNW 16.1 mph 24.2 mph N/A   Overcast
8:53 PM 24.1 °F 13.7 °F 5.0 °F 44% 30.30 in 10.0 mi West 10.4 mph - N/A   Mostly Cloudy
9:53 PM 24.1 °F 13.1 °F 5.0 °F 44% 30.31 in 10.0 mi WNW 11.5 mph - N/A   Overcast
10:53 PM 24.1 °F 13.7 °F 6.1 °F 46% 30.31 in 10.0 mi WNW 10.4 mph - N/A   Overcast
11:53 PM 23.0 °F 13.1 °F 6.1 °F 48% 30.33 in 10.0 mi West 9.2 mph - N/A   Mostly Cloudy